[[{"header":{"parameterUnit":"m.s-1","parameterCategory":1,"la1":30.2991,"la2":30.254,"lo1":-89.0895,"lo2":-89.0444,"dy":0.0017,"dx":0.0017,"nx":28,"ny":28,"refTime":"2023-11-02T21:00:00:Z","depth":0,"parameterNumber":2,"parameterNumberName":"U-component_of_WINDS"},"data":[0,0,0,0,0,0,0,0,0,0,0,0,0,0,0,0,0,0,0,0,0,0,0,0,0,0,0,0,0,0,0,0,0,0,0,0,0,0,0,0,0,0,0,0,0,0,0,0,0,0,0,0,0,0,0,0,0,0,-3.0863,-3.0862,0,-3.0808,-3.0808,-3.0807,-3.0597,-3.0592,-3.0587,-3.0582,-3.0533,-3.0536,-3.054,0,0,0,0,0,0,0,0,0,0,0,0,0,-3.0791,-3.0793,-3.0863,-3.0862,-3.0862,-3.0809,-3.0808,-3.0807,-3.0598,-3.0592,-3.0586,-3.058,-3.0532,-3.0536,-3.054,0,0,0,0,0,0,0,0,0,0,0,0,0,-3.0788,-3.0794,-3.0863,-3.075,-3.074,-3.0809,-3.0808,-3.0807,-3.0599,-3.0592,-3.0584,-3.0577,-3.0531,-3.0536,-3.054,-3.0716,0,0,-3.0555,-3.0557,0,0,0,0,0,0,0,0,-3.0789,-3.0791,-3.0768,-3.0758,-3.0747,-3.0702,-3.0764,-3.0777,-3.0601,-3.0653,-3.0582,-3.0574,-3.0596,-3.0595,-3.0601,-3.0713,-3.0711,-3.0555,-3.0558,-3.056,-3.0562,0,0,0,0,0,0,0,-3.0789,-3.0792,-3.0841,-3.0768,-3.0755,-3.0704,-3.0696,-3.0765,-3.0666,-3.0648,-3.0632,-3.0628,-3.0588,-3.0597,-3.0598,-3.071,-3.0555,-3.056,-3.0563,-3.0564,-3.0964,-3.0971,0,0,0,0,0,0,-3.0804,-3.0794,-3.0843,-3.084,-3.075,-3.0712,-3.0702,-3.0724,-3.0664,-3.0648,-3.0634,-3.0619,-3.0592,-3.0593,-3.0595,-3.0796,-3.056,-3.0565,-3.0568,-3.0956,-3.0965,-3.0974,0,0,0,0,0,0,-3.0804,-3.0811,-3.0845,-3.0813,-3.0813,-3.0721,-3.0746,-3.0726,-3.0734,-3.0654,-3.0636,-3.0661,-3.0586,-3.0589,-3.0687,-3.0792,-3.0567,-3.0571,-3.0947,-3.0959,-3.097,-3.12,0,0,0,0,0,0,-3.0803,-3.0812,-3.0876,-3.0816,-3.0816,-3.0937,-3.0753,-3.0731,-3.0742,-3.0721,-3.0674,-3.0659,-3.0581,-3.0681,-3.0692,-3.0794,-3.0575,-3.0937,-3.0952,-3.0966,-3.1183,-3.1218,-3.1249,0,0,0,0,0,-3.0801,-3.0945,-3.0881,-3.0888,-3.0894,-3.0943,-3.0943,-3.0848,-3.0751,-3.0816,-3.0765,-3.0661,-3.0778,-3.0693,-3.0703,-3.0809,-3.093,-3.0948,-3.0965,-3.1168,-3.1211,-3.1248,0,0,0,0,0,0,-3.1023,-3.0935,-3.0863,-3.0991,-3.0976,-3.0908,-3.0986,-3.0897,-3.091,-3.089,-3.0773,-3.0764,-3.088,-3.0853,-3.076,-3.0975,-3.0837,-3.0857,-3.0988,-3.1028,-3.106,-3.1065,-3.0579,0,0,0,0,0,-3.1087,-3.1132,-3.1053,-3.1175,-3.117,-3.1081,-3.1098,-3.1026,-3.1006,-3.0999,-3.0955,-3.0942,-3.0975,-3.1,-3.1027,-3.1178,-3.1165,-3.1256,-3.1289,-3.1316,-3.1335,-3.1414,-3.1453,-3.1031,-3.1031,-3.103,0,0,-3.122,-3.1177,-3.1213,-3.1218,-3.1198,-3.1249,-3.1076,-3.1138,-3.1175,-3.1009,-3.1098,-3.1066,-3.1043,-3.1169,-3.1222,-3.1151,-3.1449,-3.1338,-3.1361,-3.1365,-3.1436,-3.1476,-3.1511,-3.1043,-3.104,-3.1039,0,0,-3.1487,-3.146,-3.1557,-3.1539,-3.151,-3.1449,-3.1473,-3.1417,-3.1389,-3.1476,-3.1352,-3.1396,-3.1456,-3.1445,-3.1447,-3.171,-3.1616,-3.1722,-3.1895,-3.1972,-3.2006,-3.2034,-3.2129,-3.2164,-3.1742,-3.1742,-3.1743,0,-3.1657,-3.1727,-3.1619,-3.1688,-3.1694,-3.1544,-3.1642,-3.1631,-3.1614,-3.1622,-3.1542,-3.1614,-3.1588,-3.1709,-3.1773,-3.178,-3.1805,-3.1728,-3.2009,-3.2037,-3.2062,-3.2151,-3.2187,-3.1756,-3.1754,-3.1753,-3.1751,0,-3.1937,-3.1987,-3.207,-3.2053,-3.2069,-3.2153,-3.206,-3.2089,-3.2015,-3.1963,-3.2054,-3.2018,-3.2034,-3.2057,-3.1987,-3.2169,-3.2125,-3.2029,-3.1888,-3.2118,-3.2199,-3.2232,-3.1774,-3.177,-3.1766,-3.1762,0,0,-3.2344,-3.2265,-3.2298,-3.2288,-3.2244,-3.2282,-3.236,-3.2373,-3.2401,-3.2394,-3.2457,-3.2511,-3.2421,-3.2424,-3.2351,-3.2419,-3.2631,-3.2314,-3.2312,-3.2375,-3.2829,-3.2902,-3.2943,-3.2567,-3.2573,-3.2578,-3.2831,0,-3.2599,-3.2724,-3.263,-3.2773,-3.2819,-3.2676,-3.2744,-3.2725,-3.2679,-3.2713,-3.2662,-3.2702,-3.258,-3.2581,-3.2642,-3.2592,-3.272,-3.2572,-3.2626,-3.2629,-3.2637,-3.2985,-3.3063,-3.3304,-3.2862,-3.2868,-3.2871,0,-3.2913,-3.2917,-3.3065,-3.301,-3.3026,-3.3088,-3.3093,-3.3126,-3.3103,-3.3064,-3.3068,-3.2976,-3.305,-3.2912,-3.3012,-3.2914,-3.293,-3.2909,-3.2916,-3.2918,-3.2765,-3.2998,-3.3378,-3.3415,-3.292,-3.2916,-3.2913,0,-3.3196,-3.3239,-3.3332,-3.3328,-3.3267,-3.3314,-3.3292,-3.326,-3.3275,-3.328,-3.3288,-3.3303,-3.3311,-3.3326,-3.3241,-3.3148,-3.3354,-3.3208,-3.3326,-3.3328,-3.3376,-3.3374,-3.3765,-3.3387,-3.3386,-3.3385,-3.3385,0,-3.3491,-3.3587,-3.3458,-3.3516,-3.3619,-3.351,-3.3616,-3.3578,-3.3552,-3.3601,-3.3479,-3.3529,-3.3414,-3.3452,-3.3387,-3.3481,-3.3486,-3.3458,-3.344,-3.3469,-3.3473,-3.3479,-3.346,-3.3395,-3.3393,-3.3391,-3.3389,0,-3.3825,-3.3742,-3.3834,-3.3768,-3.3753,-3.3833,-3.3777,-3.3828,-3.3773,-3.3837,-3.3846,-3.3761,-3.3799,-3.3716,-3.3744,-3.37,-3.3834,-3.3789,-3.3841,-3.3828,-3.395,-3.394,-3.4359,-3.4409,-3.3999,-3.4003,-3.4006,0,-3.4018,-3.4088,-3.4029,-3.4051,-3.4035,-3.4074,-3.4086,-3.3982,-3.4001,-3.3979,-3.4034,-3.4062,-3.4078,-3.4147,-3.4089,-3.411,-3.4064,-3.421,-3.4067,-3.4094,-3.4067,-3.4064,-3.4071,-3.424,-3.4245,-3.4249,-3.4252,0,-3.4371,-3.4326,-3.4348,-3.4357,-3.4375,-3.4378,-3.4371,-3.4398,-3.4286,-3.4315,-3.4351,-3.4364,-3.439,-3.442,-3.4427,-3.4405,-3.4312,-3.4297,-3.4326,-3.4357,-3.4384,-3.4371,-3.3922,-3.4288,-3.4285,-3.4282,-3.428,-3.4279,-3.464,-3.4695,-3.4662,-3.4691,-3.4674,-3.4671,-3.4716,-3.4666,-3.4694,-3.4706,-3.4643,-3.4694,-3.4669,-3.4668,-3.4656,-3.4695,-3.463,-3.4671,-3.4682,-3.4694,-3.4714,-3.4378,-3.4697,-3.4695,-3.4694,-3.4693,-3.4693,0,-3.4986,-3.4957,-3.4985,-3.4978,-3.5002,-3.4908,-3.4897,-3.4923,-3.4968,-3.4952,-3.497,-3.5013,-3.5041,-3.4985,-3.5004,-3.5047,-3.5004,-3.5055,-3.5051,-3.5048,-3.4771,-3.4744,-3.5089,-3.5089,-3.5089,-3.5089,-3.5089,-3.5089,-3.5169,-3.5257,-3.5209,-3.5289,-3.5259,-3.5306,-3.5307,-3.5304,-3.529,-3.5342,-3.5364,-3.5326,-3.5294,-3.531,-3.5333,-3.5315,-3.5329,-3.5396,-3.5364,-3.5106,-3.5068,-3.5031,-3.5005,-3.5399,-3.54,-3.5637,-3.564,-3.5641]},{"header":{"parameterUnit":"m.s-1","parameterCategory":1,"la1":30.2991,"la2":30.254,"lo1":-89.0895,"lo2":-89.0444,"dy":0.0017,"dx":0.0017,"nx":28,"ny":28,"refTime":"2023-11-02T21:00:00:Z","depth":0,"parameterNumber":3,"parameterNumberName":"V-component_of_WINDS"},"data":[0,0,0,0,0,0,0,0,0,0,0,0,0,0,0,0,0,0,0,0,0,0,0,0,0,0,0,0,0,0,0,0,0,0,0,0,0,0,0,0,0,0,0,0,0,0,0,0,0,0,0,0,0,0,0,0,0,0,-1.4456,-1.4457,0,-1.4529,-1.453,-1.4531,-1.4586,-1.4586,-1.4587,-1.4587,-1.4657,-1.4658,-1.466,0,0,0,0,0,0,0,0,0,0,0,0,0,-1.436,-1.4361,-1.4456,-1.4457,-1.4458,-1.4529,-1.453,-1.4531,-1.4586,-1.4586,-1.4587,-1.4587,-1.4656,-1.4658,-1.466,0,0,0,0,0,0,0,0,0,0,0,0,0,-1.4414,-1.4361,-1.4456,-1.4494,-1.4498,-1.4529,-1.453,-1.4531,-1.4586,-1.4586,-1.4587,-1.4588,-1.4656,-1.4658,-1.466,-1.4657,0,0,-1.4666,-1.4667,0,0,0,0,0,0,0,0,-1.441,-1.4417,-1.4488,-1.4492,-1.4496,-1.4549,-1.4521,-1.4573,-1.4585,-1.4552,-1.4587,-1.4588,-1.462,-1.4625,-1.4637,-1.466,-1.4663,-1.4666,-1.4668,-1.4668,-1.4669,0,0,0,0,0,0,0,-1.4407,-1.4414,-1.4485,-1.4489,-1.4494,-1.4506,-1.4514,-1.4531,-1.4581,-1.4555,-1.4559,-1.4567,-1.4623,-1.4635,-1.4639,-1.4664,-1.4666,-1.4668,-1.4669,-1.467,-1.4687,-1.4687,0,0,0,0,0,0,-1.4398,-1.4411,-1.4483,-1.4487,-1.4455,-1.4507,-1.4516,-1.4531,-1.4581,-1.4589,-1.4567,-1.457,-1.4631,-1.4636,-1.4642,-1.4641,-1.4668,-1.467,-1.4672,-1.4688,-1.4687,-1.4686,0,0,0,0,0,0,-1.4395,-1.4404,-1.448,-1.445,-1.4461,-1.4508,-1.4524,-1.4532,-1.4545,-1.459,-1.4598,-1.4571,-1.4632,-1.4639,-1.4653,-1.4644,-1.4671,-1.4673,-1.4689,-1.4688,-1.4687,-1.4639,0,0,0,0,0,0,-1.4392,-1.4403,-1.4403,-1.445,-1.4462,-1.4491,-1.4524,-1.4533,-1.4549,-1.4553,-1.4595,-1.4603,-1.4633,-1.4649,-1.4655,-1.4647,-1.4675,-1.469,-1.4689,-1.4687,-1.4642,-1.4637,-1.4632,0,0,0,0,0,-1.4389,-1.4386,-1.4403,-1.4411,-1.4464,-1.4491,-1.4498,-1.4533,-1.4548,-1.4548,-1.4577,-1.4602,-1.4644,-1.465,-1.4657,-1.465,-1.4691,-1.4689,-1.4687,-1.4644,-1.4638,-1.4632,0,0,0,0,0,0,-1.4336,-1.4393,-1.4412,-1.4425,-1.4453,-1.45,-1.4501,-1.4526,-1.4549,-1.4552,-1.4594,-1.4603,-1.4612,-1.4632,-1.4638,-1.4649,-1.467,-1.467,-1.4635,-1.463,-1.4625,-1.4619,-1.4677,0,0,0,0,0,-1.4326,-1.4344,-1.4393,-1.4399,-1.4412,-1.4454,-1.4467,-1.4492,-1.4522,-1.4533,-1.4563,-1.4589,-1.4609,-1.462,-1.4641,-1.4645,-1.4654,-1.4643,-1.4638,-1.4634,-1.4633,-1.4635,-1.4631,-1.4681,-1.4681,-1.4681,0,0,-1.4305,-1.4339,-1.4347,-1.4389,-1.4414,-1.443,-1.4464,-1.4479,-1.4491,-1.4535,-1.4551,-1.4573,-1.4605,-1.4614,-1.4619,-1.4631,-1.4621,-1.4632,-1.4628,-1.4629,-1.4633,-1.4628,-1.4624,-1.4679,-1.468,-1.468,0,0,-1.4275,-1.4303,-1.4311,-1.4335,-1.4372,-1.44,-1.4402,-1.4445,-1.4462,-1.4479,-1.4512,-1.4525,-1.4558,-1.4579,-1.4594,-1.4571,-1.4595,-1.4576,-1.4551,-1.4553,-1.4549,-1.4545,-1.4536,-1.4532,-1.4575,-1.4575,-1.4575,0,-1.4244,-1.4272,-1.4312,-1.4326,-1.4342,-1.4384,-1.4391,-1.4412,-1.4453,-1.4462,-1.4476,-1.4517,-1.4542,-1.4555,-1.455,-1.4561,-1.4563,-1.4572,-1.4546,-1.4544,-1.4541,-1.4532,-1.4529,-1.4573,-1.4573,-1.4573,-1.4573,0,-1.4231,-1.4249,-1.4251,-1.4291,-1.4308,-1.4318,-1.4358,-1.437,-1.4393,-1.4419,-1.4434,-1.4465,-1.4492,-1.4497,-1.4519,-1.4513,-1.452,-1.4539,-1.4561,-1.4533,-1.4526,-1.4523,-1.4569,-1.457,-1.4571,-1.4571,0,0,-1.417,-1.4232,-1.4232,-1.425,-1.4293,-1.4307,-1.4318,-1.4346,-1.4355,-1.4381,-1.4391,-1.4417,-1.4435,-1.4452,-1.4477,-1.4479,-1.4457,-1.4498,-1.4499,-1.4488,-1.4451,-1.4435,-1.4431,-1.4473,-1.4473,-1.4472,-1.4447,0,-1.4147,-1.4171,-1.4207,-1.4219,-1.4235,-1.4275,-1.4284,-1.4311,-1.4335,-1.4351,-1.4377,-1.4395,-1.4418,-1.4428,-1.4432,-1.4459,-1.445,-1.4461,-1.448,-1.4481,-1.447,-1.4427,-1.4411,-1.4386,-1.4445,-1.4445,-1.4444,0,-1.4123,-1.4148,-1.4162,-1.4203,-1.4211,-1.422,-1.4247,-1.4262,-1.4292,-1.431,-1.4328,-1.4356,-1.4368,-1.4388,-1.4405,-1.4411,-1.4421,-1.4436,-1.4435,-1.4438,-1.446,-1.4427,-1.438,-1.4375,-1.444,-1.4441,-1.4441,0,-1.4075,-1.4113,-1.4126,-1.414,-1.4189,-1.4193,-1.4214,-1.4245,-1.4259,-1.4282,-1.4291,-1.4315,-1.4327,-1.4344,-1.4377,-1.4389,-1.4389,-1.4412,-1.4402,-1.4401,-1.4399,-1.4399,-1.4351,-1.4407,-1.4407,-1.4407,-1.4407,0,-1.4045,-1.4051,-1.4105,-1.4113,-1.4121,-1.4161,-1.4167,-1.4191,-1.4218,-1.423,-1.4265,-1.4274,-1.4317,-1.4331,-1.4356,-1.4365,-1.4371,-1.4384,-1.439,-1.438,-1.4378,-1.4387,-1.4389,-1.4406,-1.4406,-1.4407,-1.4407,0,-1.3993,-1.403,-1.4047,-1.4091,-1.4103,-1.4106,-1.4144,-1.4152,-1.4178,-1.4192,-1.4198,-1.4238,-1.4256,-1.4291,-1.4318,-1.4335,-1.4338,-1.435,-1.4328,-1.4332,-1.4319,-1.4319,-1.4275,-1.427,-1.4329,-1.4328,-1.4328,0,-1.3971,-1.3977,-1.4023,-1.4034,-1.4053,-1.407,-1.4085,-1.4124,-1.4137,-1.4171,-1.4175,-1.4196,-1.4216,-1.4243,-1.4273,-1.4294,-1.4306,-1.4289,-1.431,-1.4299,-1.4305,-1.4304,-1.4304,-1.4284,-1.4283,-1.4283,-1.4282,0,-1.3927,-1.3945,-1.3965,-1.3992,-1.4008,-1.4031,-1.4054,-1.4061,-1.4105,-1.4118,-1.4138,-1.4153,-1.4181,-1.4201,-1.4227,-1.4246,-1.427,-1.4275,-1.4274,-1.4263,-1.425,-1.4256,-1.4314,-1.4276,-1.4277,-1.4277,-1.4277,-1.4278,-1.3889,-1.3896,-1.3929,-1.395,-1.3972,-1.3994,-1.4003,-1.4031,-1.4049,-1.4076,-1.4098,-1.4115,-1.4144,-1.4181,-1.4198,-1.4211,-1.4223,-1.4221,-1.422,-1.4219,-1.4214,-1.4249,-1.4216,-1.4216,-1.4216,-1.4216,-1.4217,0,-1.3846,-1.3869,-1.3889,-1.3921,-1.3937,-1.3961,-1.3988,-1.3999,-1.4015,-1.4041,-1.4059,-1.4081,-1.41,-1.4132,-1.4154,-1.4158,-1.417,-1.4163,-1.4162,-1.4166,-1.4203,-1.4202,-1.4153,-1.4153,-1.4153,-1.4153,-1.4153,-1.4153,-1.3826,-1.3838,-1.386,-1.3883,-1.3906,-1.3925,-1.3938,-1.3957,-1.3977,-1.4001,-1.4018,-1.4039,-1.4066,-1.409,-1.4108,-1.4117,-1.4123,-1.4112,-1.4123,-1.4157,-1.4163,-1.4169,-1.4168,-1.4113,-1.4113,-1.4085,-1.4085,-1.4085]}]]